Time,TemperatureF,DewpointF,PressureIn,WindDirection,WindDirectionDegrees,WindSpeedMPH,WindSpeedGustMPH,Humidity,HourlyPrecipIn,Conditions,Clouds,dailyrainin,SoftwareType,DateUTC
2013-06-21 00:00:00,81.0,72.3,29.82,SE,135,0.0,13.0,75,0.00,,,-99.99,Weather View 32 v60,2013-06-21 05:00:00,
2013-06-21 00:15:00,81.0,72.3,29.81,West,270,7.0,13.0,75,0.00,,,-99.99,Weather View 32 v60,2013-06-21 05:15:00,
2013-06-21 00:30:00,81.0,72.7,29.81,ENE,67,0.0,13.0,76,0.00,,,-99.99,Weather View 32 v60,2013-06-21 05:30:00,
2013-06-21 00:45:00,81.0,72.3,29.81,SW,225,8.0,15.0,75,0.00,,,-99.99,Weather View 32 v60,2013-06-21 05:45:00,
2013-06-21 00:51:00,81.0,72.3,29.81,SW,225,8.0,15.0,75,0.00,,,-99.99,Weather View 32 v60,2013-06-21 05:51:00,
2013-06-21 01:00:00,81.0,71.9,29.81,NNW,337,2.0,15.0,74,0.00,,,-99.99,Weather View 32 v60,2013-06-21 06:00:00,
2013-06-21 01:14:00,81.0,72.3,29.81,West,270,1.0,15.0,75,0.00,,,-99.99,Weather View 32 v60,2013-06-21 06:14:00,
2013-06-21 01:30:00,80.0,71.7,29.81,SSW,202,0.0,15.0,76,0.00,,,-99.99,Weather View 32 v60,2013-06-21 06:30:00,
2013-06-21 01:45:00,80.0,72.1,29.81,South,180,7.0,16.0,77,0.00,,,-99.99,Weather View 32 v60,2013-06-21 06:45:00,
2013-06-21 01:52:00,80.0,72.1,29.81,South,180,7.0,16.0,77,0.00,,,-99.99,Weather View 32 v60,2013-06-21 06:52:00,
2013-06-21 02:00:00,80.0,72.5,29.81,SW,225,0.0,16.0,78,0.00,,,-99.99,Weather View 32 v60,2013-06-21 07:00:00,
2013-06-21 02:15:00,79.0,71.9,29.81,West,270,6.0,16.0,79,0.00,,,-99.99,Weather View 32 v60,2013-06-21 07:15:00,
2013-06-21 02:30:00,79.0,71.9,29.79,NE,45,0.0,16.0,79,0.00,,,-99.99,Weather View 32 v60,2013-06-21 07:30:00,
2013-06-21 02:44:00,80.0,72.5,29.79,SW,225,8.0,15.0,78,0.00,,,-99.99,Weather View 32 v60,2013-06-21 07:44:00,
2013-06-21 02:52:00,80.0,72.5,29.79,SW,225,8.0,15.0,78,0.00,,,-99.99,Weather View 32 v60,2013-06-21 07:52:00,
2013-06-21 03:00:00,79.0,71.9,29.80,West,270,2.0,15.0,79,0.00,,,-99.99,Weather View 32 v60,2013-06-21 08:00:00,
2013-06-21 03:15:00,79.0,71.9,29.81,SW,225,0.0,15.0,79,0.00,,,-99.99,Weather View 32 v60,2013-06-21 08:15:00,
2013-06-21 03:30:00,79.0,71.9,29.81,SW,225,0.0,13.0,79,0.00,,,-99.99,Weather View 32 v60,2013-06-21 08:30:00,
2013-06-21 03:45:00,79.0,71.9,29.81,WSW,247,4.0,13.0,79,0.00,,,-99.99,Weather View 32 v60,2013-06-21 08:45:00,
2013-06-21 03:53:00,79.0,71.9,29.81,WSW,247,4.0,13.0,79,0.00,,,-99.99,Weather View 32 v60,2013-06-21 08:53:00,
2013-06-21 04:00:00,79.0,71.9,29.82,SW,225,5.0,13.0,79,0.00,,,-99.99,Weather View 32 v60,2013-06-21 09:00:00,
2013-06-21 04:15:00,79.0,71.9,29.81,West,270,2.0,13.0,79,0.00,,,-99.99,Weather View 32 v60,2013-06-21 09:15:00,
2013-06-21 04:30:00,79.0,71.5,29.81,WNW,292,0.0,16.0,78,0.00,,,-99.99,Weather View 32 v60,2013-06-21 09:30:00,
2013-06-21 04:45:00,79.0,71.9,29.81,NW,315,0.0,16.0,79,0.00,,,-99.99,Weather View 32 v60,2013-06-21 09:45:00,
2013-06-21 04:54:00,79.0,71.9,29.81,NW,315,0.0,16.0,79,0.00,,,-99.99,Weather View 32 v60,2013-06-21 09:54:00,
2013-06-21 05:00:00,79.0,71.9,29.81,SSE,157,1.0,16.0,79,0.00,,,-99.99,Weather View 32 v60,2013-06-21 10:00:00,
2013-06-21 05:15:00,79.0,71.9,29.81,WSW,247,4.0,16.0,79,0.00,,,-99.99,Weather View 32 v60,2013-06-21 10:15:00,
2013-06-21 05:30:00,78.0,70.9,29.81,WSW,247,0.0,16.0,79,0.00,,,-99.99,Weather View 32 v60,2013-06-21 10:30:00,
2013-06-21 05:45:00,78.0,70.9,29.82,SSW,202,11.0,16.0,79,0.00,,,-99.99,Weather View 32 v60,2013-06-21 10:45:00,
2013-06-21 05:54:00,78.0,70.9,29.82,SSW,202,11.0,16.0,79,0.00,,,-99.99,Weather View 32 v60,2013-06-21 10:54:00,
2013-06-21 06:00:00,78.0,70.9,29.83,WNW,292,0.0,16.0,79,0.00,,,-99.99,Weather View 32 v60,2013-06-21 11:00:00,
2013-06-21 06:15:00,78.0,70.9,29.83,South,180,6.0,15.0,79,0.00,,,-99.99,Weather View 32 v60,2013-06-21 11:15:00,
2013-06-21 06:30:00,78.0,70.9,29.83,SSW,202,5.0,15.0,79,0.00,,,-99.99,Weather View 32 v60,2013-06-21 11:30:00,
2013-06-21 06:45:00,78.0,70.9,29.83,WSW,247,0.0,15.0,79,0.00,,,-99.99,Weather View 32 v60,2013-06-21 11:45:00,
2013-06-21 07:00:00,78.0,70.9,29.84,SW,225,3.0,15.0,79,0.00,,,-99.99,Weather View 32 v60,2013-06-21 12:00:00,
2013-06-21 07:15:00,78.0,70.9,29.83,South,180,0.0,13.0,79,0.00,,,-99.99,Weather View 32 v60,2013-06-21 12:15:00,
2013-06-21 07:30:00,78.0,70.9,29.84,North,360,0.0,11.0,79,0.00,,,-99.99,Weather View 32 v60,2013-06-21 12:30:00,
2013-06-21 07:45:00,79.0,71.5,29.84,West,270,5.0,12.0,78,0.00,,,-99.99,Weather View 32 v60,2013-06-21 12:45:00,
2013-06-21 07:55:00,79.0,71.5,29.84,West,270,5.0,12.0,78,0.00,,,-99.99,Weather View 32 v60,2013-06-21 12:55:00,
2013-06-21 08:15:00,80.0,71.7,29.84,South,180,4.0,13.0,76,0.00,,,-99.99,Weather View 32 v60,2013-06-21 13:15:00,
2013-06-21 08:30:00,81.0,71.9,29.83,ENE,67,2.0,13.0,74,0.00,,,-99.99,Weather View 32 v60,2013-06-21 13:30:00,
2013-06-21 08:44:00,82.0,72.0,29.83,ESE,112,0.0,13.0,72,0.00,,,-99.99,Weather View 32 v60,2013-06-21 13:44:00,
2013-06-21 08:56:00,82.0,72.0,29.83,ESE,112,0.0,13.0,72,0.00,,,-99.99,Weather View 32 v60,2013-06-21 13:56:00,
2013-06-21 09:14:00,82.0,72.9,29.83,East,90,0.0,14.0,74,0.00,,,-99.99,Weather View 32 v60,2013-06-21 14:14:00,
2013-06-21 09:30:00,81.0,71.9,29.84,SE,135,0.0,14.0,74,0.00,,,-99.99,Weather View 32 v60,2013-06-21 14:30:00,
2013-06-21 09:44:00,82.0,71.6,29.85,SW,225,6.0,14.0,71,0.00,,,-99.99,Weather View 32 v60,2013-06-21 14:44:00,
2013-06-21 09:56:00,82.0,71.6,29.85,SW,225,6.0,14.0,71,0.00,,,-99.99,Weather View 32 v60,2013-06-21 14:56:00,
2013-06-21 10:15:00,84.0,73.1,29.82,East,90,5.0,12.0,70,0.00,,,-99.99,Weather View 32 v60,2013-06-21 15:15:00,
2013-06-21 10:30:00,85.0,72.8,29.82,SE,135,2.0,12.0,67,0.00,,,-99.99,Weather View 32 v60,2013-06-21 15:30:00,
2013-06-21 10:45:00,85.0,73.2,29.82,WSW,247,7.0,11.0,68,0.00,,,-99.99,Weather View 32 v60,2013-06-21 15:45:00,
2013-06-21 10:57:00,85.0,73.2,29.82,WSW,247,7.0,11.0,68,0.00,,,-99.99,Weather View 32 v60,2013-06-21 15:57:00,
2013-06-21 11:14:00,83.0,72.6,29.83,South,180,6.0,14.0,71,0.00,,,-99.99,Weather View 32 v60,2013-06-21 16:14:00,
2013-06-21 11:30:00,83.0,72.2,29.83,ENE,67,2.0,14.0,70,0.00,,,-99.99,Weather View 32 v60,2013-06-21 16:30:00,
2013-06-21 11:45:00,83.0,72.2,29.84,ESE,112,1.0,14.0,70,0.00,,,-99.99,Weather View 32 v60,2013-06-21 16:45:00,
2013-06-21 11:57:00,83.0,72.2,29.84,ESE,112,1.0,14.0,70,0.00,,,-99.99,Weather View 32 v60,2013-06-21 16:57:00,
2013-06-21 12:15:00,82.0,72.0,29.81,SE,135,7.0,17.0,72,0.00,,,-99.99,Weather View 32 v60,2013-06-21 17:15:00,
2013-06-21 12:45:00,82.0,72.9,29.78,ESE,112,12.0,22.0,74,0.00,,,-99.99,Weather View 32 v60,2013-06-21 17:45:00,
2013-06-21 12:58:00,82.0,72.9,29.78,ESE,112,12.0,22.0,74,0.00,,,-99.99,Weather View 32 v60,2013-06-21 17:58:00,
2013-06-21 13:00:00,84.0,74.0,29.79,SW,225,1.0,22.0,72,0.00,,,-99.99,Weather View 32 v60,2013-06-21 18:00:00,
2013-06-21 13:14:00,85.0,73.2,29.79,SW,225,9.0,22.0,68,0.00,,,-99.99,Weather View 32 v60,2013-06-21 18:14:00,
2013-06-21 13:30:00,85.0,71.4,29.79,SW,225,0.0,22.0,64,0.00,,,-99.99,Weather View 32 v60,2013-06-21 18:30:00,
2013-06-21 13:45:00,85.0,72.3,29.80,SSW,202,0.0,19.0,66,0.00,,,-99.99,Weather View 32 v60,2013-06-21 18:45:00,
2013-06-21 13:59:00,85.0,72.3,29.80,SSW,202,0.0,19.0,66,0.00,,,-99.99,Weather View 32 v60,2013-06-21 18:59:00,
2013-06-21 14:00:00,86.0,72.3,29.79,South,180,11.0,19.0,64,0.00,,,-99.99,Weather View 32 v60,2013-06-21 19:00:00,
2013-06-21 14:15:00,87.0,72.8,29.77,SW,225,0.0,19.0,63,0.00,,,-99.99,Weather View 32 v60,2013-06-21 19:15:00,
2013-06-21 14:30:00,88.0,72.8,29.77,WSW,247,6.0,17.0,61,0.00,,,-99.99,Weather View 32 v60,2013-06-21 19:30:00,
2013-06-21 14:45:00,89.0,72.2,29.75,South,180,12.0,17.0,58,0.00,,,-99.99,Weather View 32 v60,2013-06-21 19:45:00,
2013-06-21 14:59:00,89.0,72.2,29.75,South,180,12.0,17.0,58,0.00,,,-99.99,Weather View 32 v60,2013-06-21 19:59:00,
2013-06-21 15:15:00,89.0,70.1,29.74,NE,45,0.0,19.0,54,0.00,,,-99.99,Weather View 32 v60,2013-06-21 20:15:00,
2013-06-21 15:30:00,89.0,70.1,29.74,West,270,0.0,19.0,54,0.00,,,-99.99,Weather View 32 v60,2013-06-21 20:30:00,
2013-06-21 15:45:00,90.0,72.1,29.74,WNW,292,0.0,19.0,56,0.00,,,-99.99,Weather View 32 v60,2013-06-21 20:45:00,
2013-06-21 16:00:00,90.0,71.0,29.73,SSE,157,4.0,19.0,54,0.00,,,-99.99,Weather View 32 v60,2013-06-21 21:00:00,
2013-06-21 16:15:00,90.0,70.5,29.73,SW,225,3.0,17.0,53,0.00,,,-99.99,Weather View 32 v60,2013-06-21 21:15:00,
2013-06-21 16:30:00,91.0,71.4,29.72,South,180,0.0,16.0,53,0.00,,,-99.99,Weather View 32 v60,2013-06-21 21:30:00,
2013-06-21 16:45:00,91.0,70.8,29.73,West,270,0.0,17.0,52,0.00,,,-99.99,Weather View 32 v60,2013-06-21 21:45:00,
2013-06-21 17:00:00,92.0,70.0,29.73,SSE,157,0.0,17.0,49,0.00,,,-99.99,Weather View 32 v60,2013-06-21 22:00:00,
2013-06-21 17:15:00,92.0,68.8,29.75,NW,315,0.0,17.0,47,0.00,,,-99.99,Weather View 32 v60,2013-06-21 22:15:00,
2013-06-21 17:30:00,92.0,68.8,29.75,ESE,112,0.0,17.0,47,0.00,,,-99.99,Weather View 32 v60,2013-06-21 22:30:00,
2013-06-21 17:45:00,92.0,68.2,29.75,WNW,292,0.0,16.0,46,0.00,,,-99.99,Weather View 32 v60,2013-06-21 22:45:00,
2013-06-21 18:00:00,92.0,69.4,29.74,SW,225,0.0,16.0,48,0.00,,,-99.99,Weather View 32 v60,2013-06-21 23:00:00,
2013-06-21 18:14:00,93.0,69.7,29.74,SW,225,0.0,13.0,47,0.00,,,-99.99,Weather View 32 v60,2013-06-21 23:14:00,
2013-06-21 18:30:00,92.0,70.6,29.75,WSW,247,0.0,12.0,50,0.00,,,-99.99,Weather View 32 v60,2013-06-21 23:30:00,
2013-06-21 18:45:00,91.0,70.3,29.74,WSW,247,0.0,9.0,51,0.00,,,-99.99,Weather View 32 v60,2013-06-21 23:45:00,
2013-06-21 19:00:00,91.0,69.7,29.74,SSE,157,0.0,9.0,50,0.00,,,-99.99,Weather View 32 v60,2013-06-22 00:00:00,
2013-06-21 19:15:00,90.0,70.5,29.75,ESE,112,0.0,8.0,53,0.00,,,-99.99,Weather View 32 v60,2013-06-22 00:15:00,
2013-06-21 19:30:00,90.0,71.0,29.75,WSW,247,0.0,8.0,54,0.00,,,-99.99,Weather View 32 v60,2013-06-22 00:30:00,
2013-06-21 19:45:00,89.0,71.7,29.75,SE,135,0.0,8.0,57,0.00,,,-99.99,Weather View 32 v60,2013-06-22 00:45:00,
2013-06-21 20:00:00,88.0,71.8,29.76,SE,135,0.0,9.0,59,0.00,,,-99.99,Weather View 32 v60,2013-06-22 01:00:00,
2013-06-21 20:15:00,87.0,72.3,29.76,East,90,1.0,9.0,62,0.00,,,-99.99,Weather View 32 v60,2013-06-22 01:15:00,
2013-06-21 20:30:00,87.0,73.8,29.76,SSE,157,0.0,9.0,65,0.00,,,-99.99,Weather View 32 v60,2013-06-22 01:30:00,
2013-06-21 20:44:00,86.0,73.7,29.77,ESE,112,5.0,9.0,67,0.00,,,-99.99,Weather View 32 v60,2013-06-22 01:44:00,
2013-06-21 21:00:00,86.0,74.2,29.78,East,90,1.0,12.0,68,0.00,,,-99.99,Weather View 32 v60,2013-06-22 02:00:00,
2013-06-21 21:15:00,85.0,74.1,29.79,ESE,112,8.0,12.0,70,0.00,,,-99.99,Weather View 32 v60,2013-06-22 02:15:00,
2013-06-21 21:30:00,84.0,74.0,29.78,SE,135,6.0,12.0,72,0.00,,,-99.99,Weather View 32 v60,2013-06-22 02:30:00,
2013-06-21 21:45:00,84.0,74.4,29.78,ESE,112,3.0,12.0,73,0.00,,,-99.99,Weather View 32 v60,2013-06-22 02:45:00,
2013-06-21 22:00:00,84.0,74.4,29.78,South,180,0.0,11.0,73,0.00,,,-99.99,Weather View 32 v60,2013-06-22 03:00:00,
2013-06-21 22:15:00,83.0,73.0,29.78,East,90,0.0,11.0,72,0.00,,,-99.99,Weather View 32 v60,2013-06-22 03:15:00,
2013-06-21 22:30:00,84.0,73.1,29.77,SW,225,2.0,13.0,70,0.00,,,-99.99,Weather View 32 v60,2013-06-22 03:30:00,
2013-06-21 22:44:00,84.0,72.3,29.77,NE,45,0.0,13.0,68,0.00,,,-99.99,Weather View 32 v60,2013-06-22 03:44:00,
2013-06-21 23:00:00,84.0,71.8,29.78,SSW,202,10.0,13.0,67,0.00,,,-99.99,Weather View 32 v60,2013-06-22 04:00:00,
2013-06-21 23:04:00,84.0,71.8,29.78,SSW,202,10.0,13.0,67,0.00,,,-99.99,Weather View 32 v60,2013-06-22 04:04:00,
2013-06-21 23:15:00,84.0,71.8,29.78,WSW,247,2.0,13.0,67,0.00,,,-99.99,Weather View 32 v60,2013-06-22 04:15:00,
2013-06-21 23:30:00,84.0,71.8,29.78,SW,225,3.0,15.0,67,0.00,,,-99.99,Weather View 32 v60,2013-06-22 04:30:00,
2013-06-21 23:45:00,84.0,71.4,29.78,SW,225,7.0,16.0,66,0.00,,,-99.99,Weather View 32 v60,2013-06-22 04:45:00,